Total_Precipitation_Accumulation
0.19 0.26 0.52 0.53 0.51 0.45 0.43 0.41 0.46 0.44 0.43 0.45 0.48 0.51 0.51 0.47 0.42 0.39 0.37 0.41 0.52 0.66 0.76 0.80 0.76 0.68 0.63 0.57 0.43 0.29 0.25 0.22 0.18 0.15 0.14 0.19 0.25 0.26 0.22 0.20 0.23 0.27 0.35
0.16 0.28 0.54 0.58 0.59 0.58 0.56 0.46 0.41 0.43 0.44 0.47 0.53 0.56 0.56 0.53 0.47 0.41 0.40 0.48 0.59 0.71 0.74 0.75 0.66 0.52 0.49 0.44 0.31 0.22 0.18 0.14 0.10 0.06 0.05 0.08 0.15 0.23 0.22 0.20 0.23 0.31 0.36
0.19 0.32 0.52 0.60 0.64 0.66 0.60 0.49 0.40 0.40 0.46 0.52 0.56 0.58 0.61 0.58 0.51 0.49 0.50 0.56 0.65 0.76 0.71 0.62 0.53 0.40 0.35 0.28 0.22 0.18 0.16 0.13 0.08 0.07 0.08 0.11 0.17 0.25 0.26 0.23 0.29 0.36 0.41
0.27 0.42 0.51 0.65 0.68 0.70 0.66 0.56 0.49 0.45 0.50 0.56 0.61 0.66 0.70 0.66 0.58 0.61 0.60 0.60 0.64 0.69 0.61 0.50 0.47 0.39 0.29 0.23 0.20 0.21 0.21 0.17 0.11 0.11 0.15 0.16 0.18 0.32 0.34 0.34 0.42 0.44 0.42
0.42 0.52 0.67 0.75 0.78 0.78 0.72 0.67 0.61 0.57 0.59 0.64 0.68 0.76 0.76 0.76 0.72 0.76 0.69 0.61 0.57 0.51 0.47 0.42 0.37 0.34 0.26 0.24 0.22 0.22 0.21 0.18 0.13 0.13 0.15 0.17 0.23 0.44 0.43 0.39 0.37 0.36 0.34
0.59 0.69 0.88 0.99 0.99 0.93 0.84 0.79 0.75 0.69 0.68 0.71 0.74 0.82 0.87 0.87 0.85 0.83 0.69 0.55 0.47 0.42 0.42 0.40 0.32 0.30 0.27 0.23 0.21 0.21 0.20 0.15 0.13 0.13 0.14 0.20 0.31 0.53 0.47 0.37 0.35 0.37 0.37
0.70 0.84 1.06 1.22 1.25 1.11 0.99 0.93 0.91 0.88 0.88 0.86 0.85 0.91 0.99 0.98 0.92 0.85 0.66 0.49 0.40 0.39 0.41 0.41 0.37 0.33 0.32 0.27 0.24 0.21 0.18 0.13 0.11 0.11 0.14 0.23 0.37 0.53 0.49 0.44 0.42 0.43 0.43
0.84 0.96 1.20 1.36 1.32 1.24 1.21 1.13 1.12 1.12 1.06 1.01 1.00 1.09 1.12 1.05 0.94 0.84 0.71 0.56 0.45 0.38 0.38 0.38 0.38 0.36 0.33 0.32 0.29 0.25 0.15 0.10 0.09 0.11 0.16 0.24 0.35 0.47 0.48 0.46 0.46 0.46 0.44
1.14 1.23 1.39 1.42 1.34 1.25 1.19 1.20 1.21 1.27 1.28 1.17 1.07 1.11 1.12 1.03 0.90 0.83 0.67 0.63 0.53 0.46 0.43 0.39 0.37 0.37 0.35 0.33 0.30 0.24 0.14 0.09 0.08 0.09 0.14 0.23 0.35 0.46 0.48 0.45 0.43 0.42 0.40
1.62 1.60 1.61 1.64 1.55 1.37 1.20 1.24 1.25 1.22 1.19 1.20 1.13 0.97 0.91 0.85 0.75 0.74 0.56 0.56 0.55 0.49 0.44 0.41 0.39 0.41 0.37 0.29 0.26 0.21 0.15 0.11 0.10 0.09 0.15 0.22 0.33 0.42 0.40 0.41 0.40 0.42 0.42
2.07 2.04 1.86 1.85 1.77 1.69 1.52 1.39 1.41 1.29 1.18 1.13 1.09 0.92 0.86 0.91 0.80 0.62 0.43 0.42 0.44 0.44 0.42 0.39 0.37 0.37 0.30 0.24 0.20 0.19 0.18 0.15 0.13 0.14 0.17 0.22 0.35 0.45 0.46 0.45 0.43 0.44 0.46
2.26 2.25 2.13 2.02 1.95 1.96 1.71 1.57 1.60 1.44 1.27 1.13 1.01 1.00 0.92 0.91 0.87 0.67 0.52 0.41 0.43 0.41 0.41 0.43 0.44 0.38 0.29 0.23 0.19 0.18 0.19 0.18 0.20 0.17 0.17 0.21 0.33 0.45 0.54 0.53 0.45 0.42 0.45
2.62 2.55 2.39 2.27 2.16 2.14 2.03 1.71 1.64 1.52 1.41 1.30 1.11 1.06 1.04 1.04 0.97 0.86 0.74 0.58 0.53 0.44 0.44 0.44 0.46 0.38 0.32 0.29 0.25 0.20 0.18 0.19 0.21 0.19 0.16 0.17 0.28 0.43 0.55 0.57 0.51 0.45 0.45
2.69 2.77 2.61 2.47 2.35 2.27 2.19 1.96 1.73 1.60 1.44 1.33 1.18 1.05 1.11 1.12 1.01 0.87 0.76 0.67 0.60 0.49 0.46 0.45 0.41 0.36 0.31 0.28 0.26 0.25 0.23 0.22 0.21 0.21 0.19 0.17 0.24 0.36 0.48 0.55 0.56 0.56 0.53
2.55 2.80 2.80 2.69 2.51 2.33 2.27 2.15 1.88 1.64 1.45 1.40 1.39 1.23 1.08 1.03 0.94 0.88 0.76 0.75 0.67 0.57 0.53 0.49 0.45 0.42 0.38 0.34 0.29 0.26 0.25 0.23 0.20 0.20 0.18 0.16 0.18 0.28 0.41 0.51 0.60 0.68 0.74
2.41 2.66 2.80 2.90 2.77 2.52 2.25 2.11 2.00 1.82 1.64 1.59 1.52 1.40 1.29 1.16 1.05 0.94 0.81 0.78 0.72 0.62 0.55 0.54 0.50 0.48 0.45 0.40 0.34 0.30 0.26 0.25 0.22 0.20 0.17 0.16 0.19 0.23 0.31 0.42 0.54 0.72 0.85
2.51 2.61 2.77 2.91 3.00 2.83 2.54 2.27 2.13 1.98 1.81 1.71 1.64 1.65 1.54 1.37 1.20 1.12 0.96 0.83 0.77 0.77 0.72 0.67 0.63 0.53 0.45 0.40 0.35 0.33 0.31 0.29 0.27 0.23 0.19 0.17 0.18 0.20 0.24 0.33 0.47 0.64 0.80
2.82 2.81 2.92 2.90 3.01 3.02 2.87 2.57 2.27 2.11 1.95 1.73 1.55 1.58 1.62 1.52 1.37 1.29 1.21 1.06 0.95 0.91 0.88 0.77 0.66 0.62 0.49 0.40 0.35 0.32 0.30 0.29 0.26 0.25 0.22 0.18 0.16 0.17 0.21 0.27 0.36 0.49 0.63
2.92 3.04 3.17 3.12 2.96 3.00 3.09 2.93 2.53 2.22 2.02 1.85 1.62 1.48 1.51 1.56 1.47 1.34 1.21 1.19 1.19 1.10 0.98 0.87 0.72 0.70 0.63 0.50 0.43 0.38 0.32 0.29 0.26 0.25 0.24 0.22 0.19 0.18 0.19 0.22 0.27 0.33 0.44
2.91 2.98 3.10 3.21 3.25 3.25 3.28 3.28 2.97 2.55 2.22 2.00 1.83 1.66 1.57 1.58 1.58 1.49 1.33 1.25 1.28 1.27 1.18 1.07 0.93 0.81 0.74 0.68 0.59 0.46 0.37 0.31 0.28 0.27 0.26 0.24 0.22 0.20 0.20 0.21 0.23 0.25 0.30
2.72 2.82 2.84 2.94 3.12 3.23 3.28 3.20 3.01 2.62 2.38 2.16 1.96 1.88 1.78 1.68 1.66 1.67 1.52 1.43 1.43 1.40 1.37 1.33 1.27 1.13 0.92 0.87 0.80 0.61 0.43 0.35 0.31 0.27 0.27 0.27 0.25 0.25 0.25 0.25 0.26 0.28 0.31
2.27 2.62 2.67 2.74 2.83 2.90 2.92 3.08 3.13 2.96 2.63 2.41 2.20 2.01 1.87 1.73 1.64 1.66 1.69 1.60 1.48 1.48 1.48 1.44 1.37 1.25 1.13 1.05 0.96 0.88 0.69 0.52 0.38 0.31 0.29 0.29 0.29 0.29 0.29 0.30 0.32 0.34 0.36
1.99 2.38 2.56 2.66 2.77 2.76 2.90 3.27 3.45 3.39 3.02 2.69 2.40 2.14 1.94 1.84 1.80 1.66 1.59 1.61 1.57 1.53 1.51 1.49 1.50 1.51 1.40 1.28 1.16 1.19 1.00 0.73 0.54 0.41 0.35 0.34 0.36 0.37 0.36 0.36 0.38 0.42 0.44
1.72 2.03 2.26 2.55 2.75 2.85 2.95 3.11 3.16 2.94 2.68 2.38 2.28 2.20 2.08 1.96 1.83 1.77 1.71 1.66 1.63 1.58 1.52 1.55 1.56 1.58 1.62 1.52 1.37 1.27 1.15 0.95 0.88 0.68 0.51 0.46 0.48 0.49 0.50 0.47 0.45 0.47 0.49
1.50 1.78 1.93 2.14 2.39 2.57 2.71 2.91 3.03 2.86 2.56 2.38 2.30 2.22 2.11 2.05 1.90 1.77 1.70 1.71 1.70 1.63 1.58 1.59 1.62 1.61 1.63 1.63 1.54 1.43 1.35 1.17 1.01 0.94 0.75 0.61 0.60 0.56 0.56 0.55 0.53 0.51 0.52
1.28 1.58 1.74 1.92 2.09 2.29 2.38 2.60 2.84 2.74 2.49 2.21 2.11 2.07 1.96 1.91 1.82 1.68 1.62 1.60 1.60 1.58 1.53 1.50 1.54 1.56 1.56 1.53 1.49 1.41 1.38 1.31 1.16 1.12 1.02 0.82 0.78 0.71 0.70 0.70 0.66 0.62 0.59